[[{"header":{"parameterUnit":"m.s-1","parameterCategory":1,"la1":30.2991,"la2":30.254,"lo1":-89.0895,"lo2":-89.0444,"dy":0.0017,"dx":0.0017,"nx":28,"ny":28,"refTime":"2024-03-19T03:00:00:Z","depth":0,"parameterNumber":2,"parameterNumberName":"U-component_of_WINDS"},"data":[0,0,0,0,0,0,0,0,0,0,0,0,0,0,0,0,0,0,0,0,0,0,0,0,0,0,0,0,0,0,0,0,0,0,0,0,0,0,0,0,0,0,0,0,0,0,0,0,0,0,0,0,0,0,0,0,0,0,2.3411,2.3413,0,2.3522,2.3523,2.3524,2.351,2.3508,2.3506,2.3505,2.3617,2.3621,2.3626,0,0,0,0,0,0,0,0,0,0,0,0,0,2.3186,2.319,2.3411,2.3413,2.3414,2.3521,2.3523,2.3525,2.351,2.3508,2.3506,2.3504,2.3615,2.3621,2.3627,0,0,0,0,0,0,0,0,0,0,0,0,0,2.3289,2.3192,2.3411,2.342,2.3422,2.3521,2.3523,2.3525,2.3511,2.3508,2.3505,2.3503,2.3614,2.362,2.3627,2.3725,0,0,2.3649,2.3652,0,0,0,0,0,0,0,0,2.3283,2.3297,2.3417,2.342,2.3422,2.3499,2.3485,2.3592,2.3512,2.3477,2.3505,2.3502,2.358,2.359,2.3616,2.373,2.3735,2.3649,2.3654,2.3657,2.3659,0,0,0,0,0,0,0,2.3276,2.3292,2.3455,2.3419,2.3422,2.3418,2.3429,2.3505,2.3542,2.348,2.3479,2.3492,2.3581,2.3609,2.3619,2.3736,2.3649,2.3655,2.366,2.3662,2.3932,2.3935,0,0,0,0,0,0,2.3267,2.3287,2.3451,2.3458,2.3344,2.3424,2.3437,2.3477,2.3541,2.3549,2.3495,2.3491,2.3599,2.3611,2.3623,2.3738,2.3656,2.3663,2.3667,2.3929,2.3933,2.3936,0,0,0,0,0,0,2.3262,2.3282,2.3447,2.3372,2.3393,2.3431,2.3476,2.3481,2.351,2.3553,2.3559,2.3517,2.3597,2.3613,2.3699,2.3742,2.3666,2.3673,2.3926,2.393,2.3934,2.3972,0,0,0,0,0,0,2.3256,2.328,2.3318,2.3373,2.3397,2.3522,2.3479,2.3485,2.3522,2.3519,2.3576,2.3582,2.3596,2.3688,2.3706,2.375,2.3678,2.3922,2.3928,2.3933,2.3967,2.3978,2.3986,0,0,0,0,0,2.3248,2.3325,2.332,2.334,2.3445,2.3525,2.3538,2.3553,2.3525,2.3563,2.359,2.3581,2.3735,2.3697,2.3717,2.3764,2.3919,2.3926,2.3933,2.3963,2.3976,2.3986,0,0,0,0,0,0,2.3274,2.3332,2.3328,2.3425,2.347,2.3522,2.3571,2.3566,2.3619,2.3614,2.363,2.3643,2.3729,2.3756,2.3712,2.386,2.3823,2.3834,2.384,2.3852,2.3861,2.3852,2.3684,0,0,0,0,0,2.3291,2.3351,2.3399,2.348,2.3503,2.3533,2.3568,2.3575,2.3622,2.3641,2.3675,2.372,2.3779,2.3817,2.3874,2.3971,2.3982,2.4014,2.4023,2.4031,2.4039,2.409,2.4104,2.3958,2.3958,2.3958,0,0,2.3328,2.3367,2.3404,2.3486,2.3522,2.3583,2.3549,2.3615,2.366,2.3651,2.3734,2.376,2.3812,2.3903,2.3945,2.3928,2.4082,2.4039,2.4045,2.405,2.4099,2.4112,2.4125,2.3963,2.3962,2.3961,0,0,2.3424,2.3461,2.3531,2.3567,2.3621,2.364,2.3657,2.371,2.3726,2.381,2.3804,2.3857,2.3958,2.3994,2.4026,2.4134,2.4126,2.4152,2.4201,2.4251,2.4262,2.4272,2.4308,2.4321,2.4161,2.4161,2.4161,0,2.3462,2.3554,2.3568,2.3634,2.367,2.3664,2.3735,2.3769,2.3839,2.3863,2.3843,2.3968,2.4002,2.4101,2.4127,2.4154,2.4172,2.4145,2.4259,2.427,2.4279,2.4314,2.4328,2.4164,2.4163,2.4163,2.4163,0,2.3596,2.366,2.371,2.3777,2.3818,2.3886,2.391,2.395,2.3953,2.3974,2.4057,2.4099,2.4162,2.4186,2.4191,2.4285,2.4272,2.4256,2.4218,2.4296,2.4328,2.4342,2.4167,2.4167,2.4166,2.4165,0,0,2.3713,2.3785,2.3803,2.3832,2.3891,2.3939,2.4007,2.4068,2.4101,2.415,2.4205,2.429,2.4274,2.431,2.4318,2.4362,2.4441,2.4339,2.4341,2.4355,2.4545,2.4556,2.4571,2.4437,2.444,2.4442,2.454,0,2.3813,2.3932,2.3946,2.4051,2.4108,2.4103,2.4161,2.4202,2.4223,2.4274,2.4298,2.4356,2.4332,2.4354,2.4397,2.4423,2.448,2.4416,2.4487,2.4489,2.4472,2.4589,2.4601,2.4692,2.4553,2.4555,2.4557,0,2.3946,2.3997,2.4107,2.4155,2.418,2.4232,2.4288,2.4338,2.4384,2.4396,2.4435,2.4438,2.4505,2.4466,2.4559,2.4515,2.4545,2.4562,2.4565,2.4571,2.4527,2.4596,2.4721,2.4734,2.4578,2.4576,2.4575,0,2.4017,2.4113,2.4191,2.4216,2.4275,2.4311,2.4337,2.4381,2.4416,2.4466,2.4488,2.4545,2.4576,2.4619,2.4636,2.4606,2.4727,2.469,2.4737,2.4736,2.4761,2.4759,2.4892,2.4784,2.4784,2.4784,2.4783,0,2.4127,2.4194,2.4223,2.4271,2.4345,2.436,2.4434,2.4458,2.4496,2.4548,2.4547,2.4595,2.4615,2.4667,2.468,2.4753,2.4768,2.4778,2.478,2.4777,2.4775,2.4795,2.4789,2.4787,2.4786,2.4786,2.4785,0,2.4218,2.4241,2.4325,2.4373,2.4387,2.4439,2.448,2.4525,2.4545,2.461,2.4626,2.4657,2.4717,2.4738,2.4811,2.482,2.4904,2.4902,2.4888,2.4888,2.4933,2.4928,2.5082,2.5102,2.4983,2.4984,2.4985,0,2.4286,2.4337,2.439,2.4424,2.4451,2.4507,2.4543,2.4559,2.4596,2.4651,2.4689,2.4749,2.4797,2.4892,2.4921,2.4976,2.4974,2.5024,2.4982,2.4976,2.4972,2.4968,2.4972,2.5031,2.5033,2.5034,2.5035,0,2.4402,2.441,2.4462,2.4517,2.4559,2.4604,2.4646,2.4674,2.4697,2.4738,2.4799,2.4836,2.491,2.4968,2.5024,2.505,2.5045,2.5048,2.5061,2.5057,2.5046,2.505,2.4907,2.5044,2.5043,2.5042,2.5042,2.5041,2.4483,2.4527,2.457,2.4627,2.4661,2.47,2.4744,2.4769,2.482,2.4881,2.4887,2.4952,2.4995,2.5069,2.5098,2.5148,2.5134,2.5154,2.5159,2.5163,2.5165,2.5039,2.5159,2.5158,2.5158,2.5158,2.5158,0,2.4597,2.4624,2.4676,2.4735,2.4779,2.4772,2.4818,2.4855,2.4912,2.4952,2.4999,2.5068,2.5124,2.5156,2.5212,2.5245,2.5245,2.5259,2.5256,2.5261,2.5176,2.5157,2.5259,2.5259,2.5259,2.5259,2.5259,2.5259,2.4662,2.4735,2.4748,2.4838,2.4865,2.4928,2.4954,2.499,2.5022,2.5098,2.5144,2.5165,2.5202,2.526,2.531,2.5318,2.5337,2.5353,2.5359,2.5278,2.5268,2.5258,2.524,2.5358,2.5358,2.544,2.5441,2.5442]},{"header":{"parameterUnit":"m.s-1","parameterCategory":1,"la1":30.2991,"la2":30.254,"lo1":-89.0895,"lo2":-89.0444,"dy":0.0017,"dx":0.0017,"nx":28,"ny":28,"refTime":"2024-03-19T03:00:00:Z","depth":0,"parameterNumber":3,"parameterNumberName":"V-component_of_WINDS"},"data":[0,0,0,0,0,0,0,0,0,0,0,0,0,0,0,0,0,0,0,0,0,0,0,0,0,0,0,0,0,0,0,0,0,0,0,0,0,0,0,0,0,0,0,0,0,0,0,0,0,0,0,0,0,0,0,0,0,0,-1.3876,-1.3876,0,-1.396,-1.3961,-1.3962,-1.4004,-1.4004,-1.4004,-1.4004,-1.4089,-1.4091,-1.4094,0,0,0,0,0,0,0,0,0,0,0,0,0,-1.3749,-1.3751,-1.3875,-1.3876,-1.3878,-1.396,-1.3961,-1.3962,-1.4004,-1.4004,-1.4004,-1.4004,-1.4088,-1.4091,-1.4094,0,0,0,0,0,0,0,0,0,0,0,0,0,-1.3816,-1.3752,-1.3875,-1.3908,-1.3912,-1.396,-1.3961,-1.3963,-1.4004,-1.4004,-1.4004,-1.4004,-1.4087,-1.4091,-1.4094,-1.4115,0,0,-1.4105,-1.4106,0,0,0,0,0,0,0,0,-1.3812,-1.382,-1.3902,-1.3906,-1.391,-1.3971,-1.3948,-1.4014,-1.4004,-1.3969,-1.4004,-1.4004,-1.405,-1.4056,-1.4072,-1.4119,-1.4123,-1.4105,-1.4107,-1.4108,-1.4109,0,0,0,0,0,0,0,-1.3807,-1.3817,-1.3909,-1.3903,-1.3908,-1.3918,-1.3928,-1.3961,-1.4008,-1.3972,-1.3975,-1.3985,-1.4052,-1.4069,-1.4075,-1.4124,-1.4105,-1.4108,-1.411,-1.4111,-1.4195,-1.4195,0,0,0,0,0,0,-1.3797,-1.3813,-1.3906,-1.3912,-1.386,-1.3921,-1.3931,-1.3952,-1.4008,-1.4017,-1.3984,-1.3986,-1.4063,-1.407,-1.4078,-1.4107,-1.4108,-1.4112,-1.4114,-1.4195,-1.4195,-1.4195,0,0,0,0,0,0,-1.3794,-1.3805,-1.3903,-1.3863,-1.3876,-1.3923,-1.3945,-1.3953,-1.397,-1.4018,-1.4026,-1.3993,-1.4063,-1.4073,-1.4106,-1.4111,-1.4113,-1.4116,-1.4194,-1.4195,-1.4195,-1.4166,0,0,0,0,0,0,-1.3791,-1.3804,-1.3812,-1.3863,-1.3878,-1.393,-1.3946,-1.3955,-1.3976,-1.3979,-1.4028,-1.4036,-1.4064,-1.4101,-1.411,-1.4115,-1.4119,-1.4194,-1.4195,-1.4195,-1.4166,-1.4165,-1.4164,0,0,0,0,0,-1.3786,-1.38,-1.3813,-1.3824,-1.389,-1.393,-1.3939,-1.3971,-1.3976,-1.3986,-1.4016,-1.4034,-1.4109,-1.4104,-1.4114,-1.4121,-1.4194,-1.4194,-1.4195,-1.4167,-1.4165,-1.4164,0,0,0,0,0,0,-1.3748,-1.3807,-1.3822,-1.3853,-1.3886,-1.3937,-1.3949,-1.3968,-1.4,-1.4001,-1.404,-1.4051,-1.4081,-1.4104,-1.4098,-1.4145,-1.4153,-1.4156,-1.4129,-1.4127,-1.4126,-1.4119,-1.4122,0,0,0,0,0,-1.3744,-1.3772,-1.3822,-1.3845,-1.3861,-1.3902,-1.3921,-1.3943,-1.3979,-1.3993,-1.4026,-1.4059,-1.4091,-1.411,-1.4142,-1.417,-1.4182,-1.418,-1.4179,-1.4177,-1.4179,-1.4197,-1.4197,-1.4196,-1.4196,-1.4196,0,0,-1.3735,-1.377,-1.3785,-1.3838,-1.3866,-1.3894,-1.3913,-1.3942,-1.3963,-1.3997,-1.4031,-1.4056,-1.4097,-1.4128,-1.4143,-1.4148,-1.4182,-1.4178,-1.4176,-1.4179,-1.4197,-1.4197,-1.4197,-1.4196,-1.4196,-1.4196,0,0,-1.3732,-1.3762,-1.3784,-1.3813,-1.3856,-1.3884,-1.3889,-1.3937,-1.3956,-1.399,-1.4017,-1.4042,-1.4095,-1.4123,-1.4144,-1.4153,-1.4172,-1.4163,-1.4155,-1.4172,-1.4172,-1.4172,-1.4176,-1.4177,-1.4164,-1.4164,-1.4164,0,-1.3715,-1.3758,-1.3793,-1.3821,-1.3844,-1.3877,-1.39,-1.3926,-1.3976,-1.3991,-1.3996,-1.4064,-1.4093,-1.4132,-1.4135,-1.415,-1.4158,-1.4157,-1.4169,-1.417,-1.417,-1.4175,-1.4176,-1.4163,-1.4163,-1.4163,-1.4163,0,-1.3735,-1.3765,-1.3778,-1.3828,-1.3852,-1.3877,-1.3916,-1.3936,-1.3957,-1.3984,-1.4019,-1.4056,-1.4095,-1.4106,-1.4126,-1.4148,-1.415,-1.4162,-1.417,-1.4169,-1.4173,-1.4175,-1.4161,-1.4161,-1.4162,-1.4162,0,0,-1.3711,-1.378,-1.3784,-1.3807,-1.3858,-1.3882,-1.3909,-1.3948,-1.3965,-1.3999,-1.4023,-1.4067,-1.4079,-1.4103,-1.4126,-1.4141,-1.4147,-1.4151,-1.4153,-1.4149,-1.4175,-1.4165,-1.4167,-1.416,-1.416,-1.4161,-1.4171,0,-1.3715,-1.3766,-1.3799,-1.3836,-1.3864,-1.3896,-1.392,-1.3954,-1.398,-1.4008,-1.4037,-1.4068,-1.4081,-1.4096,-1.4112,-1.4143,-1.4153,-1.4143,-1.4182,-1.4183,-1.4171,-1.4169,-1.4159,-1.4168,-1.4173,-1.4174,-1.4174,0,-1.3727,-1.3761,-1.3802,-1.385,-1.3863,-1.3884,-1.3923,-1.395,-1.3989,-1.4007,-1.4034,-1.4059,-1.4089,-1.4095,-1.4137,-1.413,-1.4148,-1.4166,-1.4167,-1.4172,-1.4178,-1.4174,-1.4171,-1.4172,-1.4177,-1.4177,-1.4176,0,-1.3705,-1.3762,-1.3793,-1.3812,-1.3869,-1.3883,-1.3908,-1.3947,-1.3969,-1.4003,-1.4018,-1.4055,-1.4076,-1.4104,-1.4138,-1.4139,-1.4177,-1.4186,-1.4193,-1.4192,-1.4199,-1.4198,-1.4199,-1.4211,-1.4211,-1.4211,-1.4211,0,-1.3707,-1.3731,-1.3785,-1.3804,-1.3831,-1.3869,-1.3895,-1.3922,-1.3957,-1.3983,-1.4013,-1.4036,-1.4079,-1.4108,-1.4134,-1.4166,-1.4174,-1.419,-1.4197,-1.4188,-1.4185,-1.42,-1.42,-1.4211,-1.4211,-1.4211,-1.4211,0,-1.3687,-1.3724,-1.3761,-1.3813,-1.3826,-1.3844,-1.3889,-1.3909,-1.3937,-1.3969,-1.3979,-1.4023,-1.4059,-1.4095,-1.4143,-1.4161,-1.4191,-1.4201,-1.4178,-1.4182,-1.4187,-1.4186,-1.4197,-1.4201,-1.421,-1.421,-1.4209,0,-1.3686,-1.3705,-1.3759,-1.3778,-1.3802,-1.3833,-1.3856,-1.3895,-1.3917,-1.3964,-1.3979,-1.4016,-1.4048,-1.4103,-1.414,-1.4177,-1.4187,-1.4189,-1.4193,-1.4183,-1.4188,-1.4186,-1.4189,-1.4187,-1.4187,-1.4187,-1.4186,0,-1.368,-1.3697,-1.3729,-1.3768,-1.3795,-1.3827,-1.3861,-1.3875,-1.392,-1.3944,-1.3981,-1.4006,-1.4055,-1.4092,-1.4134,-1.4159,-1.418,-1.4185,-1.4189,-1.4179,-1.4165,-1.4173,-1.4174,-1.4184,-1.4185,-1.4185,-1.4185,-1.4185,-1.3669,-1.3688,-1.3729,-1.3764,-1.3794,-1.3825,-1.3847,-1.3878,-1.391,-1.3953,-1.3974,-1.4011,-1.4051,-1.4109,-1.4134,-1.4163,-1.4169,-1.4174,-1.4176,-1.4177,-1.4174,-1.4161,-1.4171,-1.4171,-1.4171,-1.4171,-1.4171,0,-1.3665,-1.3693,-1.3725,-1.3772,-1.3799,-1.3818,-1.3856,-1.3878,-1.391,-1.3946,-1.3977,-1.402,-1.4057,-1.4097,-1.4136,-1.4152,-1.4162,-1.4161,-1.416,-1.4165,-1.4167,-1.416,-1.4151,-1.4151,-1.4151,-1.4151,-1.4151,-1.4151,-1.3666,-1.3698,-1.3721,-1.3769,-1.3798,-1.3835,-1.3855,-1.3884,-1.3913,-1.3959,-1.399,-1.4016,-1.4054,-1.4096,-1.4131,-1.4141,-1.4154,-1.415,-1.4163,-1.4164,-1.4165,-1.4167,-1.416,-1.4152,-1.4152,-1.416,-1.416,-1.416]}]]